When you browse on this site, cookies collect data to enhance your experience and personalize the content and advertising you see.
Visit our Privacy Policy to learn more. By continuing to use the site, you agree to this use of cookies and data.
  • En España
  • Lista de países
  • Para 7 días
  • Temperatura del agua
  • El tiempo en el mapa
  • Informadores
  • user-avatar
    Iniciar sesión

    Tiempo cada hora Sarajevo

    Hoy, 24 Febrero, Lunes

    Tiempo Temperatura Precipitaciones Viento Presión Humedad
    00:00 +3°C° 0 mm 2 mps 689 mmHg 77%
    01:00 +3°C° 0 mm 2 mps 689 mmHg 78%
    02:00 +3°C° 0 mm 2 mps 689 mmHg 79%
    03:00 +3°C° 0 mm 2 mps 689 mmHg 80%
    04:00 +4°C° 0 mm 1 mps 688 mmHg 82%
    05:00 +4°C° 0 mm 1 mps 689 mmHg 82%
    06:00 +4°C° 0 mm 1 mps 689 mmHg 82%
    07:00 +4°C° 0 mm 1 mps 690 mmHg 82%
    08:00 +6°C° 0 mm 1 mps 691 mmHg 77%
    09:00 +7°C° 0 mm 2 mps 691 mmHg 72%
    10:00 +8°C° 0 mm 2 mps 692 mmHg 68%
    11:00 +8°C° 0 mm 2 mps 692 mmHg 69%
    12:00 +8°C° 0 mm 2 mps 692 mmHg 71%
    13:00 +8°C° 0 mm 3 mps 692 mmHg 73%
    14:00 +8°C° 0 mm 2 mps 692 mmHg 74%
    15:00 +8°C° 0 mm 2 mps 691 mmHg 76%
    16:00 +7°C° 0 mm 2 mps 691 mmHg 77%
    17:00 +6°C° 0 mm 2 mps 691 mmHg 81%
    18:00 +5°C° 0 mm 2 mps 690 mmHg 85%
    19:00 +3°C° 0 mm 2 mps 690 mmHg 88%
    20:00 +4°C° 0 mm 1 mps 690 mmHg 86%
    21:00 +4°C° 0 mm 1 mps 689 mmHg 83%
    22:00 +4°C° 0 mm 1 mps 689 mmHg 80%
    23:00 +4°C° 0 mm 1 mps 689 mmHg 79%

    Mañana, 25 Febrero, Martes

    Tiempo Temperatura Precipitaciones Viento Presión Humedad
    00:00 +5°C° 0 mm 1 mps 689 mmHg 78%
    01:00 +5°C° 0 mm 1 mps 688 mmHg 77%
    02:00 +4°C° 0 mm 2 mps 688 mmHg 78%
    03:00 +4°C° 0 mm 2 mps 687 mmHg 80%
    04:00 +4°C° 0 mm 2 mps 686 mmHg 81%
    05:00 +4°C° 0 mm 2 mps 686 mmHg 81%
    06:00 +4°C° 0 mm 2 mps 686 mmHg 81%
    07:00 +4°C° 0 mm 2 mps 686 mmHg 82%
    08:00 +6°C° 0 mm 2 mps 686 mmHg 77%
    09:00 +8°C° 0 mm 2 mps 686 mmHg 73%
    10:00 +9°C° 0 mm 3 mps 686 mmHg 68%
    11:00 +10°C° 0 mm 3 mps 686 mmHg 68%
    12:00 +10°C° 0 mm 3 mps 685 mmHg 67%
    13:00 +11°C° 0 mm 3 mps 685 mmHg 66%
    14:00 +10°C° 0 mm 3 mps 684 mmHg 71%
    15:00 +9°C° 0 mm 3 mps 684 mmHg 76%
    16:00 +9°C° 0 mm 3 mps 683 mmHg 81%
    17:00 +8°C° 0 mm 3 mps 683 mmHg 84%
    18:00 +7°C° 0 mm 3 mps 683 mmHg 88%
    19:00 +7°C° 0 mm 2 mps 682 mmHg 91%
    20:00 +7°C° 0.1 mm 3 mps 682 mmHg 92%
    21:00 +7°C° 0.1 mm 3 mps 682 mmHg 93%
    22:00 +7°C° 0.1 mm 3 mps 682 mmHg 94%
    23:00 +7°C° 0.1 mm 3 mps 681 mmHg 94%

    Pasado mañana, 26 Febrero, Miércoles

    Tiempo Temperatura Precipitaciones Viento Presión Humedad
    00:00 +7°C° 0.1 mm 3 mps 681 mmHg 94%
    01:00 +6°C° 0.1 mm 4 mps 680 mmHg 94%
    02:00 +6°C° 0.2 mm 4 mps 680 mmHg 94%
    03:00 +6°C° 0.2 mm 4 mps 679 mmHg 93%
    04:00 +6°C° 0.2 mm 4 mps 679 mmHg 93%
    05:00 +5°C° 0.2 mm 4 mps 678 mmHg 93%
    06:00 +5°C° 0.2 mm 4 mps 678 mmHg 92%
    07:00 +5°C° 0.2 mm 4 mps 677 mmHg 92%
    08:00 +5°C° 0.2 mm 5 mps 677 mmHg 91%
    09:00 +4°C° 0.2 mm 6 mps 677 mmHg 89%
    10:00 +5°C° 0.2 mm 6 mps 676 mmHg 88%
    11:00 +5°C° 0.2 mm 6 mps 676 mmHg 88%
    12:00 +5°C° 0.2 mm 6 mps 676 mmHg 89%
    13:00 +5°C° 0.2 mm 6 mps 675 mmHg 89%
    14:00 +5°C° 0.5 mm 6 mps 675 mmHg 89%
    15:00 +5°C° 0.5 mm 6 mps 674 mmHg 89%
    16:00 +5°C° 0.5 mm 7 mps 674 mmHg 89%
    17:00 +4°C° 0.8 mm 6 mps 674 mmHg 88%
    18:00 +4°C° 0.8 mm 6 mps 674 mmHg 88%
    19:00 +3°C° 0.8 mm 5 mps 674 mmHg 87%
    20:00 +4°C° 0.8 mm 4 mps 674 mmHg 90%
    21:00 +3°C° 0.8 mm 4 mps 674 mmHg 93%
    22:00 +2°C° 0.8 mm 3 mps 674 mmHg 96%
    23:00 +3°C° 1.5 mm 2 mps 674 mmHg 97%

    27 Febrero, Jueves

    Tiempo Temperatura Precipitaciones Viento Presión Humedad
    00:00 +3°C° 1.5 mm 2 mps 674 mmHg 97%
    01:00 +2°C° 1.5 mm 2 mps 673 mmHg 97%
    02:00 +1°C° 2.3 mm 2 mps 674 mmHg 97%
    03:00 0°C° 2.3 mm 3 mps 674 mmHg 97%
    04:00 -1°C° 2.3 mm 3 mps 674 mmHg 97%
    05:00 -2°C° 2.1 mm 3 mps 675 mmHg 95%
    06:00 -4°C° 2.1 mm 3 mps 675 mmHg 94%
    07:00 -5°C° 2.1 mm 4 mps 676 mmHg 92%
    08:00 -4°C° 0.2 mm 4 mps 677 mmHg 90%
    09:00 -4°C° 0.2 mm 4 mps 679 mmHg 88%
    10:00 -3°C° 0.2 mm 4 mps 680 mmHg 85%
    11:00 -3°C° 0.1 mm 4 mps 680 mmHg 83%
    12:00 -2°C° 0.1 mm 4 mps 681 mmHg 80%
    13:00 -2°C° 0.1 mm 4 mps 682 mmHg 78%
    14:00 -2°C° 0.1 mm 4 mps 682 mmHg 79%
    15:00 -1°C° 0.1 mm 3 mps 682 mmHg 80%
    16:00 -1°C° 0.1 mm 2 mps 683 mmHg 81%
    17:00 -2°C° 0 mm 2 mps 683 mmHg 83%
    18:00 -2°C° 0 mm 1 mps 683 mmHg 85%
    19:00 -3°C° 0 mm 1 mps 684 mmHg 87%
    20:00 -4°C° 0 mm 1 mps 684 mmHg 87%
    21:00 -4°C° 0 mm 1 mps 684 mmHg 86%
    22:00 -4°C° 0 mm 1 mps 684 mmHg 85%
    23:00 -4°C° 0 mm 1 mps 684 mmHg 84%

    28 Febrero, Viernes

    Tiempo Temperatura Precipitaciones Viento Presión Humedad
    00:00 -6°C° 0 mm 2 mps 684 mmHg 82%
    01:00 -6°C° 0 mm 2 mps 684 mmHg 81%
    02:00 -6°C° 0 mm 2 mps 684 mmHg 81%
    03:00 -5°C° 0 mm 2 mps 683 mmHg 81%
    04:00 -6°C° 0 mm 3 mps 683 mmHg 81%
    05:00 -5°C° 0 mm 3 mps 683 mmHg 82%
    06:00 -4°C° 0 mm 3 mps 683 mmHg 83%
    07:00 -4°C° 0 mm 3 mps 684 mmHg 84%
    08:00 -1°C° 0 mm 3 mps 684 mmHg 86%
    09:00 0°C° 0 mm 3 mps 684 mmHg 88%
    10:00 0°C° 0 mm 4 mps 685 mmHg 90%
    11:00 +1°C° 0 mm 3 mps 685 mmHg 91%
    12:00 +2°C° 0 mm 3 mps 685 mmHg 92%
    13:00 +2°C° 0 mm 3 mps 685 mmHg 92%
    14:00 +2°C° 0 mm 3 mps 685 mmHg 93%
    15:00 +2°C° 0 mm 3 mps 685 mmHg 94%
    16:00 +2°C° 0 mm 3 mps 685 mmHg 95%
    17:00 +2°C° 0 mm 3 mps 685 mmHg 96%
    18:00 +2°C° 0 mm 3 mps 685 mmHg 96%
    19:00 +2°C° 0 mm 3 mps 685 mmHg 97%
    20:00 +2°C° 0.3 mm 3 mps 685 mmHg 97%
    21:00 +2°C° 0.3 mm 3 mps 685 mmHg 97%
    22:00 +2°C° 0.3 mm 3 mps 685 mmHg 97%
    23:00 +3°C° 0.5 mm 3 mps 685 mmHg 97%

    29 Febrero, Sábado

    Tiempo Temperatura Precipitaciones Viento Presión Humedad
    00:00 +3°C° 0.5 mm 3 mps 685 mmHg 97%
    01:00 +3°C° 0.5 mm 3 mps 684 mmHg 98%
    02:00 +3°C° 0.3 mm 3 mps 684 mmHg 98%
    03:00 +3°C° 0.3 mm 3 mps 683 mmHg 98%
    04:00 +3°C° 0.3 mm 3 mps 683 mmHg 98%
    05:00 +3°C° 0.1 mm 3 mps 683 mmHg 98%
    06:00 +4°C° 0.1 mm 3 mps 683 mmHg 98%
    07:00 +4°C° 0.1 mm 3 mps 682 mmHg 98%
    08:00 +4°C° 0 mm 4 mps 682 mmHg 97%
    09:00 +4°C° 0 mm 4 mps 683 mmHg 96%
    10:00 +5°C° 0 mm 4 mps 683 mmHg 95%
    11:00 +5°C° 0.1 mm 5 mps 682 mmHg 94%
    12:00 +5°C° 0.1 mm 5 mps 682 mmHg 93%
    13:00 +4°C° 0.1 mm 6 mps 682 mmHg 92%
    14:00 +4°C° 0.1 mm 6 mps 681 mmHg 93%
    15:00 +5°C° 0.1 mm 5 mps 681 mmHg 93%
    16:00 +5°C° 0.1 mm 5 mps 680 mmHg 94%
    17:00 +5°C° 0.1 mm 5 mps 680 mmHg 95%
    18:00 +5°C° 0.1 mm 4 mps 680 mmHg 95%
    19:00 +5°C° 0.1 mm 4 mps 680 mmHg 96%
    20:00 +5°C° 0.1 mm 4 mps 680 mmHg 96%
    21:00 +5°C° 0.1 mm 5 mps 680 mmHg 96%
    22:00 +5°C° 0.1 mm 5 mps 679 mmHg 96%
    23:00 +4°C° 0.1 mm 6 mps 679 mmHg 96%
    Mostrar más